Regional Weather Roundup
Issued by NWS

Home | Current Version | Previous Version | Text Only | Print | Product List | Glossary Off
Versions: 1 2 3 4 5 6 7 8 9 10 11 12 13 14 15 16 17 18 19 20 21 22 23 24 25 26 27 28 29 30 31 32 33 34 35 36 37 38 39 40 41 42 43 44 45 46 47 48 49 50

406
ASUS45 KCYS 211410
RWRWY

WYOMING REGIONAL WEATHER ROUNDUP
NATIONAL WEATHER SERVICE CHEYENNE WY
700 AM MST SUN JAN 21 2018

NOTE:  "FAIR" INDICATES FEW OR NO CLOUDS BELOW 12,000 FEET
WITH NO SIGNIFICANT WEATHER AND/OR OBSTRUCTIONS TO VISIBILITY.

WYZ001-211500-
YELLOWSTONE NATIONAL PARK

CITY           SKY/WX    TMP DP  RH WIND       PRES   REMARKS
LK YELLOWSTONE   N/A    -15 -20  78 CALM      30.00R
W YELLOWSTONE  NOT AVBL

$$
WYZ002>013-054>058-071-098>099-211500-
NORTHERN WYOMING

CITY           SKY/WX    TMP DP  RH WIND       PRES   REMARKS
JACKSON        FAIR       4   0  83 N5        30.01R WCI  -5
CODY           FAIR      20  14  77 W5        30.01R WCI  13
GREYBULL       FAIR      18  16  92 CALM      30.03R
WORLAND        CLOUDY    20  17  88 CALM      30.01R
SHERIDAN       FAIR      27  18  69 CALM      30.01R
BUFFALO        FAIR      24  13  62 NW7       29.97R WCI  16
GILLETTE       CLOUDY    25  17  72 CALM      29.97R
HULETT         PTSUNNY   27  23  86 S6        29.98S WCI  20
NEWCASTLE      FAIR      27  23  86 NW5       29.98R WCI  21

$$
WYZ014>020-022>026-101>103-211500-
CENTRAL WYOMING

CITY           SKY/WX    TMP DP  RH WIND       PRES   REMARKS
BIG PINEY      LGT SNOW  17  12  80 N13       29.91R WCI   4
PINEDALE       CLOUDY    16  14  93 NW9       29.92R WCI   4
DUBOIS         LGT SNOW  16  14  93 W5        29.92R WCI   9
LANDER         LGT SNOW  22  19  89 W7        29.97S FOG     WCI  13
RIVERTON       CLOUDY    21  16  81 W9        29.97R WCI  11
CASPER         LGT SNOW  21  20  96 N5        29.95R FOG     WCI  15
DOUGLAS        FLURRIES  24  22  91 N10       29.94R WCI  14

$$
WYZ021-027>030-104>119-211500-
SOUTHERN WYOMING

CITY           SKY/WX    TMP DP  RH WIND       PRES   REMARKS
EVANSTON       CLOUDY    12   8  84 SW6       29.96R WCI   3
FORT BRIDGER   CLOUDY    16  15  96 W16       29.96R WCI   0
ROCK SPRINGS   CLOUDY    18  14  84 N10       29.91R WCI   6
DIXON          LGT SNOW  21  17  81 NE31G38   29.77R WCI   3
RAWLINS        LGT SNOW  18  14  84 N18       29.83R FOG     WCI   2
SARATOGA       LGT SNOW  21  19  93 N8        29.78R WCI  12
LARAMIE        LGT SNOW  17  13  84 NE8       29.78R FOG     WCI   7
CHEYENNE       LGT SNOW  21  20  96 N15       29.80S FOG     WCI   8
TORRINGTON     LGT SNOW  27  25  92 NE15      29.90R FOG     WCI  15

$$




USA.gov is the U.S. government's official web portal to all federal, state and local government web resources and services.